Location: Winthrop
(48.4780°N, 120.1850°W)
Time: 00:59:05
(UTC-07:00)

A-11 Canister half - Pass Details

Date: 08 June 2023
Orbit: 1515 x 1684 km, 47.2° (Epoch: 29 September)

Event Time Altitude Azimuth Distance (km) Brightness Sun altitude
Exits shadow 23:18:26 12° 124° (SE) 3,690 10.5 -15.1°
Maximum altitude 23:18:37 12° 123° (ESE) 3,689 10.5 -15.1°
Drops below altitude 10° 23:21:51 10° 103° (ESE) 3,836 10.7 -15.3°
Sets 23:27:40 0° 76° (ENE) 4,784 11.5 -15.7°
